Regional Weather Roundup
Issued by NWS Cleveland, OH

Home | Current Version | Previous Version | Graphics & Text | Print | Product List | Glossary On
Versions: 1 2 3 4 5 6 7 8 9 10 11 12 13 14 15 16 17 18 19 20 21 22 23 24 25 26 27 28 29 30 31 32 33 34 35 36 37 38 39 40 41 42 43 44 45 46 47 48 49 50
784
ASUS41 KCLE 220200
RWRCLE
OHIO REGIONAL WEATHER ROUNDUP
NATIONAL WEATHER SERVICE WILMINGTON, OH
1000 PM EDT MON MAY 21 2018

NOTE: "FAIR" INDICATES FEW OR NO CLOUDS BELOW 12,000 FEET WITH NO
SIGNIFICANT WEATHER AND/OR OBSTRUCTIONS TO VISIBILITY.

OHZ001>008-015>018-024>027-034-035-043-044-220300-
   NORTHWEST OHIO

CITY           SKY/WX    TMP DP  RH WIND       PRES   REMARKS
DEFIANCE       MOCLDY    58  53  84 E5        30.06S
FINDLAY        MOCLDY    60  57  89 E8        30.03F
TOLEDO EXPRESS CLOUDY    57  54  89 E8        30.05F
TOLEDO EXEC    CLOUDY    58  52  80 E10       30.07S
LIMA           FAIR      61  61 100 E6        30.03F FOG
$$

OHZ009>014-019>023-028>033-038-089-220300-
   NORTHEAST OHIO

CITY           SKY/WX    TMP DP  RH WIND       PRES   REMARKS
CLE-HOPKINS    TSTM      59  57  93 NE5       30.08F
CLE-LAKEFRONT  LGT RAIN  60  55  83 CALM      30.05F
CUY CO. ARPT   TSTM      61  57  88 E12       30.08F
LORAIN-ELYRIA  LGT RAIN  58  52  80 E8        30.05F
ASHTABULA      LGT RAIN  58  55  90 N5        30.14R FOG
AKRON-CANTON   CLOUDY    72  60  66 N7        30.08R
WOOSTER        TSTM      65  61  87 N12       30.08R
MANSFIELD      RAIN      65  62  90 E10       30.06R
YOUNGSTOWN     CLOUDY    69  60  73 E3        30.08S
$$

OHZ042-051>053-060>062-070>072-077>081-220300-
  SOUTHWEST OHIO

CITY           SKY/WX    TMP DP  RH WIND       PRES   REMARKS
CINC-COVINGTON TSTM      69  65  86 CALM      30.06S
CINC-LUNKEN    TSTM      69  69 100 N8        30.05R FOG
HAMILTON       TSTM      68  67  96 CALM      30.07R
DAYTON         NOT AVBL
WRIGHT-PAT AFB NOT AVBL
DAYTON GENERAL HVY RAIN  69  65  86 W8        30.05S
WILMINGTON     MOCLDY    71  65  81 NE6       30.04R
$$

OHZ036-037-039>041-045>050-054>059-063>069-073>076-082>088-220300-
  CENTRAL AND SOUTHEAST OHIO

CITY           SKY/WX    TMP DP  RH WIND       PRES   REMARKS
COLUMBUS       TSTM      75  67  76 S7        30.08R
OSU AIRPORT    TSTM      64  62  93 W14G32    30.09R FOG
BOLTON FIELD   NOT AVBL
RICKENBACK AFB NOT AVBL
NEWARK         LGT RAIN  74  66  76 S7G17     30.06R
MARION         LGT RAIN  66  64  93 S9        30.08R
LANCASTER      CLOUDY    73  65  75 S9        30.07R
ZANESVILLE     FAIR      71  63  75 S7        30.07S
NEW PHILLY     MOCLDY    72  65  78 CALM      30.07R
$$




USA.gov is the U.S. government's official web portal to all federal, state and local government web resources and services.